[[{"header":{"parameterUnit":"m.s-1","parameterCategory":1,"la1":30.2992,"la2":30.254,"lo1":-89.0895,"lo2":-89.0443,"dy":0.0025,"dx":0.0025,"nx":19,"ny":19,"refTime":"2026-04-12T09:00:00:Z","depth":0,"parameterNumber":2,"parameterNumberName":"U-component_of_WINDS"},"data":[0,0,0,-4.1565,-4.1567,-4.1661,-4.1662,-4.1781,-4.1782,0,0,0,0,0,0,0,0,0,0,0,-4.1537,-4.1538,-4.1565,-4.1567,-4.1661,-4.1662,-4.1781,-4.1782,0,0,0,0,0,0,0,0,0,0,0,-4.1536,-4.1537,-4.1538,-4.1568,-4.1661,-4.1662,-4.1781,-4.171,0,0,0,0,0,0,0,0,0,0,-4.1619,-4.1592,-4.1537,-4.1538,-4.1568,-4.1661,-4.1662,-4.1707,-4.1714,-4.1738,0,-4.176,0,-4.1773,-4.179,-4.1791,0,0,0,-4.1567,-4.1586,-4.1612,-4.1539,-4.1569,-4.1661,-4.1619,-4.1711,-4.172,-4.1749,-4.1761,-4.1766,-4.1775,-4.1791,-4.1792,-4.193,-4.193,0,0,-4.1562,-4.1553,-4.1606,-4.1617,-4.1603,-4.1616,-4.1622,-4.1716,-4.1729,-4.1762,-4.1769,-4.1777,-4.1792,-4.1793,-4.1929,-4.193,0,0,0,-4.1547,-4.155,-4.1573,-4.1612,-4.1629,-4.1619,-4.1625,-4.1725,-4.1734,-4.177,-4.1778,-4.1792,-4.1794,-4.1928,-4.1929,-4.195,0,0,0,-4.1544,-4.1541,-4.1571,-4.1566,-4.1628,-4.1678,-4.1632,-4.1727,-4.1738,-4.1778,-4.1793,-4.1795,-4.1928,-4.1929,-4.1948,-4.196,0,0,0,-4.1531,-4.1539,-4.1553,-4.1566,-4.1606,-4.1677,-4.1691,-4.173,-4.1743,-4.1791,-4.1795,-4.1927,-4.1929,-4.1946,-4.1957,-4.1992,0,0,0,-4.1514,-4.157,-4.1553,-4.162,-4.1605,-4.169,-4.169,-4.1755,-4.1798,-4.1793,-4.1928,-4.1929,-4.1945,-4.1955,-4.199,-4.2017,-4.2028,0,0,-4.158,-4.1578,-4.1618,-4.1605,-4.1691,-4.1677,-4.1766,-4.1814,-4.1828,-4.1895,-4.1898,-4.1948,-4.1957,-4.1991,-4.2101,-4.211,0,0,0,-4.1636,-4.1664,-4.1689,-4.173,-4.1769,-4.1803,-4.184,-4.1858,-4.1916,-4.186,-4.1973,-4.1978,-4.1999,-4.2012,-4.2019,-4.2036,-4.1936,-4.1936,-4.1936,-4.1713,-4.1728,-4.1795,-4.1821,-4.1862,-4.19,-4.1933,-4.1965,-4.1968,-4.1994,-4.2012,-4.2078,-4.2093,-4.2099,-4.2116,-4.2032,-4.2032,-4.2032,-4.2032,-4.1808,-4.1849,-4.1854,-4.1919,-4.1935,-4.1991,-4.2032,-4.2032,-4.2086,-4.2065,-4.2084,-4.2055,-4.2108,-4.2124,-4.2034,-4.2033,-4.2033,-4.2033,-4.2033,-4.1856,-4.1878,-4.1901,-4.1963,-4.201,-4.2036,-4.2088,-4.2102,-4.2115,-4.2134,-4.2154,-4.2154,-4.2152,-4.2144,-4.2144,-4.2144,-4.2144,-4.2144,-4.2145,-4.1895,-4.1921,-4.1962,-4.2011,-4.204,-4.208,-4.2121,-4.215,-4.2185,-4.2191,-4.2191,-4.219,-4.2112,-4.2089,-4.2148,-4.2147,-4.2147,-4.2147,-4.2146,-4.1979,-4.1963,-4.2027,-4.2056,-4.2114,-4.2159,-4.2178,-4.2236,-4.2263,-4.2288,-4.2285,-4.2226,-4.2224,-4.2219,-4.22,-4.2283,-4.2283,-4.2283,-4.2283,-4.2016,-4.2019,-4.2087,-4.2133,-4.218,-4.2204,-4.2276,-4.231,-4.2343,-4.236,-4.2352,-4.233,-4.2323,-4.2325,-4.2317,-4.2299,-4.2406,-4.2407,-4.2407,-4.2067,-4.2075,-4.2132,-4.2165,-4.2212,-4.2253,-4.2321,-4.2374,-4.2408,-4.2412,-4.2373,-4.2368,-4.2333,-4.2322,-4.2319,-4.2306,-4.2274,0,0]},{"header":{"parameterUnit":"m.s-1","parameterCategory":1,"la1":30.2992,"la2":30.254,"lo1":-89.0895,"lo2":-89.0443,"dy":0.0025,"dx":0.0025,"nx":19,"ny":19,"refTime":"2026-04-12T09:00:00:Z","depth":0,"parameterNumber":3,"parameterNumberName":"V-component_of_WINDS"},"data":[0,0,0,2.9928,2.9929,2.9989,2.999,3.0035,3.0036,0,0,0,0,0,0,0,0,0,0,0,2.9891,2.9891,2.9928,2.9929,2.9989,2.999,3.0035,3.0036,0,0,0,0,0,0,0,0,0,0,0,2.9891,2.9891,2.989,2.9929,2.9989,2.999,3.0035,3.0001,0,0,0,0,0,0,0,0,0,0,2.9948,2.9895,2.9891,2.989,2.9929,2.9989,2.999,3.0,3.0003,2.9995,0,2.9982,0,3.001,3.0037,3.0037,0,0,0,2.9943,2.9892,2.9926,2.989,2.993,2.9989,2.9966,3.0002,3.0006,2.9999,2.9983,2.9986,3.001,3.0037,3.0037,2.9945,2.9944,0,0,2.9939,2.9891,2.9923,2.9927,2.9916,2.9964,2.9968,3.0005,2.9984,2.9984,2.9987,3.0011,3.0037,3.0037,2.9946,2.9945,0,0,0,2.9921,2.9888,2.9922,2.9924,2.9938,2.9965,2.997,2.9983,2.9998,2.9988,3.0012,3.0037,3.0037,2.9947,2.9945,2.9847,0,0,0,2.9919,2.9878,2.992,2.9891,2.9936,2.9961,2.9946,2.9995,3.0001,3.0011,3.0037,3.0037,2.9948,2.9946,2.9852,2.9807,0,0,0,2.9894,2.9875,2.9877,2.9888,2.9913,2.9962,2.9979,2.9998,3.0014,3.0037,3.0037,2.9949,2.9947,2.9857,2.9815,2.977,0,0,0,2.9852,2.9786,2.9875,2.9811,2.9912,2.99,2.998,2.9973,2.998,3.0037,2.9948,2.9946,2.9858,2.982,2.9775,2.9724,2.9698,0,0,2.9742,2.9771,2.9738,2.9819,2.9779,2.9895,2.9841,2.9892,2.9937,2.994,2.9938,2.985,2.9816,2.9771,2.9569,2.9548,0,0,0,2.9687,2.9662,2.9662,2.9668,2.9707,2.9737,2.9802,2.9822,2.9826,2.9929,2.9823,2.9804,2.978,2.9758,2.974,2.9723,2.9933,2.9933,2.9934,2.9461,2.9525,2.9474,2.9546,2.955,2.962,2.963,2.9668,2.9729,2.9703,2.9703,2.9573,2.9545,2.9532,2.9514,2.9682,2.9681,2.9681,2.9681,2.9307,2.9282,2.9368,2.935,2.9418,2.9403,2.9468,2.9512,2.9509,2.9577,2.9559,2.9628,2.9507,2.9495,2.9674,2.9675,2.9676,2.9677,2.9677,2.9167,2.9166,2.9193,2.921,2.9215,2.929,2.9284,2.9345,2.9403,2.9385,2.9394,2.9396,2.9406,2.9385,2.9385,2.9384,2.9384,2.9384,2.9383,2.901,2.9044,2.9031,2.9069,2.9082,2.9108,2.9179,2.9193,2.9225,2.9271,2.9271,2.9335,2.9484,2.952,2.9376,2.9378,2.9379,2.9379,2.938,2.8831,2.8882,2.8862,2.8875,2.8927,2.8929,2.9009,2.9034,2.9056,2.9051,2.912,2.9219,2.9253,2.9268,2.9298,2.9106,2.9106,2.9106,2.9106,2.8712,2.8736,2.8732,2.8749,2.8774,2.8845,2.8822,2.8877,2.8942,2.8959,2.8996,2.9042,2.9054,2.9081,2.9099,2.9129,2.8898,2.8897,2.8897,2.8606,2.8636,2.8603,2.8669,2.8715,2.8752,2.8733,2.875,2.8834,2.889,2.8974,2.8983,2.9058,2.9079,2.9135,2.9162,2.9217,0,0]}]]